• In Hungary
  • List of Countries
  • For 7 days
  • Water Temperature
  • Satellite Maps
  • Weather Map
  • News
  • Weather Widgets
  • user-avatar
    Login

    Hourly Weather Severomuysk

    Today, 22 October, Sunday

    Time Temperature Precipitation Wind Pressure Humidity
    00:00 -7°C° 0 mm 1 mps 703 mmHg 52%
    01:00 -7°C° 0 mm 1 mps 702 mmHg 52%
    02:00 -8°C° 0 mm 2 mps 702 mmHg 53%
    03:00 -8°C° 0 mm 2 mps 702 mmHg 53%
    04:00 -8°C° 0 mm 2 mps 702 mmHg 53%
    05:00 -8°C° 0 mm 2 mps 702 mmHg 53%
    06:00 -8°C° 0 mm 2 mps 702 mmHg 54%
    07:00 -7°C° 0 mm 2 mps 702 mmHg 54%
    08:00 -6°C° 0 mm 2 mps 702 mmHg 56%
    09:00 -4°C° 0 mm 2 mps 701 mmHg 57%
    10:00 -3°C° 0 mm 2 mps 701 mmHg 59%
    11:00 -1°C° 0 mm 2 mps 701 mmHg 60%
    12:00 +1°C° 0 mm 2 mps 701 mmHg 62%
    13:00 +1°C° 0 mm 2 mps 700 mmHg 64%
    14:00 +1°C° 0 mm 3 mps 700 mmHg 66%
    15:00 0°C° 0 mm 3 mps 700 mmHg 68%
    16:00 -1°C° 0 mm 3 mps 700 mmHg 70%
    17:00 -1°C° 0 mm 2 mps 700 mmHg 72%
    18:00 -2°C° 0 mm 2 mps 700 mmHg 73%
    19:00 -2°C° 0 mm 2 mps 700 mmHg 73%
    20:00 -2°C° 0 mm 2 mps 699 mmHg 74%
    21:00 -2°C° 0 mm 2 mps 699 mmHg 74%
    22:00 -2°C° 0 mm 2 mps 699 mmHg 74%
    23:00 -2°C° 0 mm 2 mps 699 mmHg 75%

    Tomorrow, 23 October, Monday

    Time Temperature Precipitation Wind Pressure Humidity
    00:00 -2°C° 0 mm 2 mps 699 mmHg 74%
    01:00 -3°C° 0 mm 2 mps 699 mmHg 73%
    02:00 -3°C° 0 mm 2 mps 698 mmHg 72%
    03:00 -3°C° 0 mm 2 mps 698 mmHg 72%
    04:00 -3°C° 0 mm 2 mps 698 mmHg 71%
    05:00 -3°C° 0 mm 2 mps 698 mmHg 71%
    06:00 -3°C° 0 mm 2 mps 697 mmHg 71%
    07:00 -3°C° 0 mm 2 mps 697 mmHg 72%
    08:00 -2°C° 0 mm 2 mps 697 mmHg 72%
    09:00 -1°C° 0 mm 2 mps 696 mmHg 72%
    10:00 +2°C° 0 mm 2 mps 696 mmHg 73%
    11:00 +3°C° 0 mm 2 mps 696 mmHg 73%
    12:00 +4°C° 0 mm 2 mps 695 mmHg 75%
    13:00 +4°C° 0 mm 2 mps 694 mmHg 76%
    14:00 +5°C° 0 mm 2 mps 694 mmHg 78%
    15:00 +4°C° 0 mm 2 mps 694 mmHg 79%
    16:00 +3°C° 0 mm 2 mps 693 mmHg 80%
    17:00 +2°C° 0 mm 2 mps 693 mmHg 81%
    18:00 +1°C° 0.2 mm 2 mps 694 mmHg 84%
    19:00 +1°C° 0.2 mm 2 mps 694 mmHg 86%
    20:00 +1°C° 0.2 mm 2 mps 694 mmHg 88%
    21:00 +1°C° 0.6 mm 2 mps 695 mmHg 90%
    22:00 +1°C° 0.6 mm 2 mps 695 mmHg 92%
    23:00 +1°C° 0.6 mm 2 mps 695 mmHg 94%

    Day after tomorrow, 24 October, Tuesday

    Time Temperature Precipitation Wind Pressure Humidity
    00:00 -1°C° 0.4 mm 3 mps 696 mmHg 93%
    01:00 -1°C° 0.4 mm 3 mps 696 mmHg 93%
    02:00 -3°C° 0.4 mm 4 mps 697 mmHg 92%
    03:00 -5°C° 0.1 mm 3 mps 697 mmHg 91%
    04:00 -6°C° 0.1 mm 3 mps 698 mmHg 90%
    05:00 -8°C° 0.1 mm 3 mps 698 mmHg 89%
    06:00 -7°C° 0.1 mm 2 mps 699 mmHg 90%
    07:00 -7°C° 0.1 mm 2 mps 699 mmHg 90%
    08:00 -8°C° 0.1 mm 2 mps 700 mmHg 90%
    09:00 -7°C° 0.1 mm 2 mps 700 mmHg 86%
    10:00 -7°C° 0.1 mm 3 mps 700 mmHg 81%
    11:00 -6°C° 0.1 mm 3 mps 700 mmHg 76%
    12:00 -6°C° 0.1 mm 3 mps 700 mmHg 74%
    13:00 -5°C° 0.1 mm 3 mps 700 mmHg 73%
    14:00 -5°C° 0.1 mm 3 mps 700 mmHg 71%
    15:00 -5°C° 0 mm 2 mps 700 mmHg 74%
    16:00 -7°C° 0 mm 2 mps 700 mmHg 77%
    17:00 -7°C° 0 mm 1 mps 700 mmHg 80%
    18:00 -8°C° 0 mm 1 mps 701 mmHg 81%
    19:00 -8°C° 0 mm 1 mps 701 mmHg 82%
    20:00 -9°C° 0 mm 1 mps 701 mmHg 84%
    21:00 -10°C° 0 mm 1 mps 701 mmHg 83%
    22:00 -10°C° 0 mm 1 mps 701 mmHg 83%
    23:00 -10°C° 0 mm 1 mps 701 mmHg 83%

    25 October, Wednesday

    Time Temperature Precipitation Wind Pressure Humidity
    00:00 -10°C° 0 mm 1 mps 701 mmHg 82%
    01:00 -9°C° 0 mm 1 mps 701 mmHg 82%
    02:00 -9°C° 0 mm 1 mps 700 mmHg 81%
    03:00 -9°C° 0.1 mm 1 mps 700 mmHg 82%
    04:00 -8°C° 0.1 mm 1 mps 700 mmHg 83%
    05:00 -8°C° 0.1 mm 1 mps 700 mmHg 84%
    06:00 -8°C° 0 mm 1 mps 700 mmHg 84%
    07:00 -8°C° 0 mm 1 mps 699 mmHg 85%
    08:00 -8°C° 0 mm 1 mps 699 mmHg 85%
    09:00 -6°C° 0 mm 1 mps 699 mmHg 82%
    10:00 -4°C° 0 mm 1 mps 699 mmHg 80%
    11:00 -3°C° 0 mm 1 mps 699 mmHg 77%
    12:00 -2°C° 0.1 mm 1 mps 699 mmHg 77%
    13:00 -2°C° 0.1 mm 1 mps 698 mmHg 77%
    14:00 -1°C° 0.1 mm 1 mps 698 mmHg 77%
    15:00 -3°C° 0 mm 1 mps 698 mmHg 80%
    16:00 -4°C° 0 mm 1 mps 697 mmHg 83%
    17:00 -6°C° 0 mm 1 mps 697 mmHg 86%
    18:00 -6°C° 0 mm 1 mps 697 mmHg 85%
    19:00 -6°C° 0 mm 1 mps 697 mmHg 84%
    20:00 -6°C° 0 mm 1 mps 697 mmHg 84%
    21:00 -6°C° 0 mm 1 mps 697 mmHg 84%
    22:00 -6°C° 0 mm 1 mps 697 mmHg 84%
    23:00 -4°C° 0 mm 1 mps 697 mmHg 83%

    26 October, Thursday

    Time Temperature Precipitation Wind Pressure Humidity
    00:00 -7°C° 0 mm 2 mps 697 mmHg 83%
    01:00 -7°C° 0 mm 2 mps 696 mmHg 83%
    02:00 -7°C° 0 mm 2 mps 696 mmHg 83%
    03:00 -7°C° 0 mm 2 mps 696 mmHg 82%
    04:00 -6°C° 0 mm 2 mps 696 mmHg 82%
    05:00 -6°C° 0 mm 2 mps 695 mmHg 81%
    06:00 -6°C° 0 mm 2 mps 695 mmHg 80%
    07:00 -5°C° 0 mm 2 mps 695 mmHg 79%
    08:00 -5°C° 0 mm 2 mps 694 mmHg 78%
    09:00 -4°C° 0 mm 2 mps 694 mmHg 78%
    10:00 -4°C° 0 mm 3 mps 693 mmHg 78%
    11:00 -1°C° 0 mm 3 mps 693 mmHg 77%
    12:00 -1°C° 0 mm 3 mps 692 mmHg 78%
    13:00 +1°C° 0 mm 2 mps 691 mmHg 78%
    14:00 +1°C° 0 mm 2 mps 691 mmHg 79%
    15:00 +1°C° 0.2 mm 2 mps 691 mmHg 83%
    16:00 -1°C° 0.2 mm 2 mps 690 mmHg 86%
    17:00 -2°C° 0.2 mm 2 mps 690 mmHg 90%
    18:00 -2°C° 0.5 mm 2 mps 690 mmHg 91%
    19:00 -2°C° 0.5 mm 2 mps 691 mmHg 93%
    20:00 0°C° 0.5 mm 1 mps 691 mmHg 94%
    21:00 -2°C° 0.4 mm 2 mps 691 mmHg 94%
    22:00 -3°C° 0.4 mm 2 mps 691 mmHg 95%
    23:00 -3°C° 0.4 mm 2 mps 692 mmHg 95%

    27 October, Friday

    Time Temperature Precipitation Wind Pressure Humidity
    00:00 -4°C° 0.2 mm 2 mps 692 mmHg 94%
    01:00 -5°C° 0.2 mm 2 mps 692 mmHg 94%
    02:00 -6°C° 0.2 mm 2 mps 692 mmHg 94%
    03:00 -6°C° 0.1 mm 2 mps 692 mmHg 92%
    04:00 -7°C° 0.1 mm 2 mps 693 mmHg 91%
    05:00 -8°C° 0.1 mm 2 mps 693 mmHg 90%
    06:00 -9°C° 0 mm 2 mps 693 mmHg 89%
    07:00 -9°C° 0 mm 2 mps 693 mmHg 87%
    08:00 -9°C° 0 mm 1 mps 694 mmHg 86%
    09:00 -9°C° 0 mm 2 mps 694 mmHg 84%
    10:00 -8°C° 0 mm 2 mps 694 mmHg 82%
    11:00 -7°C° 0 mm 2 mps 694 mmHg 79%
    12:00 -6°C° 0 mm 2 mps 694 mmHg 78%
    13:00 -6°C° 0 mm 2 mps 694 mmHg 76%
    14:00 -6°C° 0 mm 2 mps 694 mmHg 75%
    15:00 -7°C° 0.1 mm 2 mps 694 mmHg 79%
    16:00 -7°C° 0.1 mm 2 mps 695 mmHg 84%
    17:00 -8°C° 0.1 mm 2 mps 696 mmHg 89%
    18:00 -8°C° 0.1 mm 2 mps 696 mmHg 90%
    19:00 -9°C° 0.1 mm 2 mps 697 mmHg 91%
    20:00 -9°C° 0.1 mm 2 mps 698 mmHg 91%
    21:00 -10°C° 0.1 mm 2 mps 698 mmHg 92%
    22:00 -12°C° 0.1 mm 2 mps 699 mmHg 92%
    23:00 -13°C° 0.1 mm 2 mps 699 mmHg 92%
    Show more